Regional Weather Roundup
Issued by NWS Midland/Odessa, TX

Skip options and go directly to product.
Home | Oldest Version | Next Version | Current Version | All | Text Only | Save Text | Print | Product List | Glossary On

Skip product version selection by date and time.   
011
ASUS44 KMAF 260710
RWRMAF
MIDLAND AREA WEATHER ROUNDUP
NATIONAL WEATHER SERVICE MIDLAND TX
200 AM CDT TUE MAY 26 2015

...IN SOUTHWEST TEXAS AND SOUTHEAST NEW MEXICO...

CITY           SKY/WX    TMP DP  RH WIND       PRES   REMARKS
ALPINE         CLEAR     52  31  44 SW8       30.09S
ANDREWS        FAIR      59  50  74 CALM      29.93R
ARTESIA        CLEAR     61  43  51 CALM      29.97R
BIG SPRING     CLEAR     65  56  73 SE13      29.92S
CARLSBAD       CLEAR     65  43  44 CALM      29.94S
DRYDEN           N/A     71  45  39 N6        29.90R
FORT STOCKTON  CLEAR     63  29  27 SW12      29.94S
GUAD PASS      CLEAR     65  24  21 W5        30.07F
HOBBS          CLEAR     59  45  58 NW8       29.96R
MARFA          CLEAR     48  34  57 NW10      30.07F
MIDLAND AIRPK  CLEAR     66  56  71 S12       29.93S
MIDLAND INTL   CLEAR     66  55  67 S12       29.92S
ODESSA         CLEAR     67  50  54 S13       29.93S
PECOS          CLEAR     57  45  64 CALM      29.91S
PRESIDIO       FAIR      73  23  15 E5        29.93R
SEMINOLE       CLEAR     57  47  68 W7        29.92F
SNYDER         CLEAR     60  56  86 S7        29.91S
WINK           CLEAR     63  39  41 W9        29.89S
$$
...OTHER STATIONS IN TEXAS...

CITY           SKY/WX    TMP DP  RH WIND       PRES   REMARKS
ABILENE        CLEAR     61  59  93 S9        29.90S
AMARILLO       PTCLDY    52  49  89 SE9       29.90F
AUSTIN         CLOUDY    66  66 100 CALM      29.90F
BROWNSVILLE    CLOUDY    81  77  88 SE12      29.87F FOG
CORPUS CHRISTI CLOUDY    80  77  90 SE7       29.90R
DALLAS FTW     CLOUDY    58  58 100 CALM      29.90S
DEL RIO        CLEAR     74  67  78 E10       29.84F
EL PASO        CLEAR     70  32  24 N6        29.99R
HOUSTON INT    TSTM      68  65  90 SW9G17    29.99R
LUBBOCK        PTCLDY    60  55  83 SW8       29.92F
SAN ANGELO     CLEAR     64  61  90 S6        29.91F
SAN ANTONIO    CLOUDY    73  67  81 N3        29.90F
WACO           CLOUDY    66  65  96 S7        29.91F
WICHITA FALLS  NOT AVBL
$$
...OTHER LOCATIONS IN NEW MEXICO...

CITY           SKY/WX    TMP DP  RH WIND       PRES   REMARKS
ALAMAGORDO     CLEAR     66  36  32 N8        30.01F
ALBUQUERQUE    CLEAR     52  47  83 E5        30.08S
CANNON AFB     PTCLDY    53  47  78 SW6       29.94S
CLOVIS         PTCLDY    55  45  67 W7        29.94S
HOLLOMAN AFB   CLEAR     61  40  45 NE7       29.99F
ROSWELL        CLEAR     63  43  48 W9        29.94F
RUIDOSO        PTCLDY    52  36  54 NW10      30.13S
SANTA FE       CLEAR     45  39  79 W8        30.08S
TRUTH OR CONSE CLEAR     60  40  47 W8        30.05R
TUCUMCARI      PTCLDY    57  46  66 W5        29.91R
$$

USA.gov is the U.S. government's official web portal to all federal, state and local government web resources and services.